Weather History for CWUS - February, 2013

Change the Weather History Date:

Monday, February 18, 2013

  Actual Average Record
Temperature  
Mean Temperature 30 °F -  
Max Temperature 35 °F - - ()
Min Temperature 25 °F - - ()
Degree Days  
Heating Degree Days 35    
Moisture  
Dew Point 23 °F    
Average Humidity 74    
Maximum Humidity 94    
Minimum Humidity 50    
Precipitation  
Precipitation 0.00 in - - ()
Sea Level Pressure  
Sea Level Pressure 30.00 in    
Wind  
Wind Speed 4 mph ()    
Max Wind Speed 8 mph    
Max Gust Speed -    
T = Trace of Precipitation, MM = Missing Value Source: Averaged Metar Reports

Daily Weather History Graph

Daily Weather History Graph

Search for Another Location

Airport or City:

Trip Planner

Search our weather history database for the weather conditions in past years. The results will help you decide how hot, cold, wet, or windy it might be!

Date:

Astronomy

Feb. 18, 2013 Rise Set
Actual Time 7:01 AM PST 5:23 PM PST
Civil Twilight 6:29 AM PST 5:56 PM PST
Nautical Twilight 5:51 AM PST 6:33 PM PST
Astronomical Twilight 5:14 AM PST 7:10 PM PST
Moon 10:56 AM PST (2/18) 2:02 AM PST (2/18)
Length of Visible Light 11h 27m
Length of Day
10h 21m
First Quarter, 59% of the Moon is Illuminated
Feb 18
First Quarter
Feb 25
Full
Mar 4
Last Quarter
Mar 11
New
Mar 19
First Quarter

Hourly Weather History & Observations

Time (PST) Temp. Windchill Dew Point Humidity Pressure Visibility Wind Dir Wind Speed Gust Speed Precip Events Conditions
12:00 AM 31.1 °F 26.4 °F 19.8 °F 63% 30.14 in - West 4.6 mph - N/A   Unknown
1:00 AM 30.9 °F 24.3 °F 18.3 °F 60% 30.12 in - WNW 6.9 mph - N/A   Unknown
2:00 AM 30.0 °F 24.1 °F 18.7 °F 63% 30.12 in - WNW 5.8 mph - N/A   Unknown
3:00 AM 28.9 °F 21.9 °F 18.1 °F 64% 30.11 in - WNW 6.9 mph - N/A   Unknown
4:00 AM 28 °F - 18 °F 54% 30.09 in - WNW 8.1 mph - -  
4:00 AM 27.5 °F 19.3 °F 18.0 °F 67% 30.09 in - WNW 8.1 mph - N/A   Unknown
5:00 AM 26.8 °F 20.2 °F 17.6 °F 68% 30.09 in - WNW 5.8 mph - N/A   Unknown
6:00 AM 26.1 °F 18.4 °F 17.4 °F 70% 30.08 in - WNW 6.9 mph - N/A   Unknown
7:00 AM 25.3 °F 17.6 °F 17.1 °F 71% 30.07 in - WNW 6.9 mph - N/A   Unknown
8:00 AM 25.7 °F 19.0 °F 17.4 °F 71% 30.06 in - West 5.8 mph - N/A   Unknown
9:00 AM 28.8 °F 25.0 °F 18.0 °F 64% 30.05 in - West 3.5 mph - N/A   Unknown
10:00 AM 35 °F - 23 °F 50% 30.04 in - ESE 1.2 mph - -  
10:00 AM 34.9 °F - 23.2 °F 62% 30.04 in - ESE 1.2 mph - N/A   Unknown
11:00 AM 35.2 °F - 23.4 °F 62% 30.03 in - East 2.3 mph - N/A   Unknown
12:00 PM 34.5 °F - 22.6 °F 62% 30.01 in - NE 1.2 mph - N/A   Unknown
1:00 PM 34.2 °F - 23.2 °F 64% 29.98 in - WNW 1.2 mph - N/A   Unknown
2:00 PM 34.2 °F - 24.1 °F 67% 29.96 in - North 2.3 mph - N/A   Unknown
3:00 PM 33.4 °F - 26.1 °F 74% 29.95 in - ESE 1.2 mph - N/A   Unknown
4:00 PM 32 °F - 28 °F 79% 29.94 in - South 1.2 mph - -  
4:00 PM 31.8 °F - 27.9 °F 85% 29.94 in - South 1.2 mph - N/A   Unknown
5:00 PM 31.3 °F - 28.6 °F 90% 29.92 in - NNW 1.2 mph - N/A   Unknown
6:00 PM 30.7 °F - 28.9 °F 93% 29.92 in - Calm Calm - N/A   Unknown
7:00 PM 30.7 °F - 29.3 °F 94% 29.91 in - West 2.3 mph - N/A   Unknown
8:00 PM 31.1 °F 27.7 °F 29.5 °F 94% 29.90 in - West 3.5 mph - N/A   Unknown
9:00 PM 31.1 °F - 29.5 °F 94% 29.88 in - West 2.3 mph - N/A   Unknown
10:00 PM 31 °F - 29 °F 91% 29.87 in - West 3.5 mph - -  
10:00 PM 31.5 °F 28.1 °F 29.3 °F 92% 29.87 in - West 3.5 mph - N/A   Unknown
11:00 PM 31.3 °F 27.9 °F 29.3 °F 92% 29.87 in - NW 3.5 mph - N/A   Unknown